AVUM R/B, 40698

Orbit data source: Space-Track

AVUM R/B, 40698 is space debris in SSO originally from a launch on Tue, 23 Jun 2015 UTC launched from the French Guiana (FRGUI). Debris objects in space refer to the collection of defunct objects orbiting the Earth. Examples of debris include non-operational satellites, rocket bodies, and fragments generated from explosions, collisions, or faulty payload assembly.

Loading next visibility...
Identifier
40698, 2015-028B
Orbit
SSO
Country
Flag of FRFR
Related business
Manufacturer
Avio
Mission
Spacecraft
Bus & Motor
AVUM, Unknown motor
Mass
Wet unknown, 660 kg dry
Launch date (UTC)
2015-06-23 (11 years ago)
Launch vehicle
Unknown
Launch site
French Guiana (FRGUI)
Object type
Payload
Rocket body
Debris
Shape & HBR
Cone + Cyl, 1.1 m
Radar Cross Section
3.876 m², Large (>1 m²)

Expand to show TLE details & history
Last TLE update: 2 days ago

TLE from 2 days ago
0 AVUM R/B
1 40698U 15028B   26171.27229770  .00010023  00000-0  18518-3 0  9998
2 40698  98.6441  73.4809 0123319 252.8812 105.8895 15.41306443603645
Epoch: 2026-06-20T06:32Z
TLE epoch observation values (Epoch: 2026-06-20T06:32:06.521Z)
Latitude
-0.00006°
Longitude
66.96444°
Altitude
469.32 km
Speed
7.618 km/s
True Right ascension
04h 53m 55s
True Declination
0° 00' 00"
Sunlit
Object was in daylight at epoch
Visualization orbit readout
Latitude
Unknown
Longitude
Unknown
Altitude
Unknown
Speed
Unknown
Apparent Right ascension
Unknown
Apparent Declination
Unknown
Sunlit
N/A
Visualization observer readout
Local Sidereal Time
21:34:53
Azimuth
Unknown
Elevation
Unknown
Doppler factor
Unknown
Orbital elements
Apogee altitude
523.318 km
Perigee altitude
355.176 km
Semi-major axis
6,817.384 km
Eccentricity
0.01233
Inclination
98.6441°
RAAN
73.4809°
Arg. of periapsis
252.8812°
True anomaly
107.2428°
Mean anomaly
105.8895°
Eccentric anomaly
106.56674°
Mean motion
3.85582 °/min
Orbital period
93.37 mins
BSTAR
0.00018518
Loading maneuver chart data...
Computing Atmospheric mass density...
Loading historical data...
Loading historical data...
Loading historical data...
Loading historical data...
Loading historical data...
Loading historical data...
Loading historical data...
Other satellites on launch #28 in the year 2015 (2015-06-23 UTC)

Documentation

Showing up to 5 results
|